THOR ABLESTAR DEB, 467

Orbit data source: Space-Track

THOR ABLESTAR DEB, 467 is space debris in LEO originally from a launch on Thu, 29 Jun 1961 UTC launched from the Air Force Eastern Test Range (AFETR). Debris objects in space refer to the collection of defunct objects orbiting the Earth. Examples of debris include non-operational satellites, rocket bodies, and fragments generated from explosions, collisions, or faulty payload assembly.

Loading next visibility...
Identifier
467, 1961-015FD
Orbit
LEO
Country
Flag of USUS
Related business
Manufacturer
Unknown
Mission
Spacecraft
Bus & Motor
Unknown
Mass
Unknown
Launch date (UTC)
1961-06-29 (65 years ago)
Launch vehicle
Unknown
Launch site
Air Force Eastern Test Range (AFETR)
Object type
Payload
Rocket body
Debris
Shape & HBR
Unknown shape, 0.1 m
Radar Cross Section
Small (<0.1 m²)

Expand to show TLE details & history
Last TLE update: 13 hours ago

TLE from 13 hours ago
0 THOR ABLESTAR DEB
1 00467U 61015FD  26106.60514770  .00000586  00000-0  75787-3 0  9991
2 00467  66.5562 231.5612 0244429 356.2941   3.6299 13.57305998272587
Epoch: 2026-04-16T14:31Z
TLE epoch observation values (Epoch: 2026-04-16T14:31:24.761Z)
Latitude
-0.00002°
Longitude
168.95773°
Altitude
866.433 km
Speed
7.509 km/s
True Right ascension
15h 26m 14s
True Declination
0° 00' 00"
Sunlit
Object was in full shadow at epoch
Visualization orbit readout
Latitude
Unknown
Longitude
Unknown
Altitude
Unknown
Speed
Unknown
Apparent Right ascension
Unknown
Apparent Declination
Unknown
Sunlit
N/A
Visualization observer readout
Local Sidereal Time
10:36:55
Azimuth
Unknown
Elevation
Unknown
Doppler factor
Unknown
Orbital elements
Apogee altitude
1,225.362 km
Perigee altitude
862.527 km
Semi-major axis
7,422.082 km
Eccentricity
0.02444
Inclination
66.5562°
RAAN
231.5612°
Arg. of periapsis
356.2941°
True anomaly
3.8128°
Mean anomaly
3.6299°
Eccentric anomaly
3.72078°
Mean motion
3.39433 °/min
Orbital period
106.06 mins
BSTAR
0.00075787
Loading maneuver chart data...
Computing Atmospheric mass density...

Documentation

Showing up to 5 results
|